TimeCST,TemperatureF,Dew PointF,Humidity,Sea Level PressureIn,VisibilityMPH,Wind Direction,Wind SpeedMPH,Gust SpeedMPH,PrecipitationIn,Events,Conditions,WindDirDegrees,DateUTC
12:15 AM,17.4,14.7,89,30.29,10.0,WSW,10.4,-,N/A,,Clear,250,2013-01-04 06:15:00
12:35 AM,17.4,14.7,89,30.28,10.0,WSW,9.2,-,N/A,,Clear,250,2013-01-04 06:35:00
12:55 AM,16.5,14.0,90,30.29,10.0,WSW,9.2,-,N/A,,Clear,250,2013-01-04 06:55:00
1:15 AM,15.8,14.0,93,30.29,10.0,West,9.2,-,N/A,,Clear,260,2013-01-04 07:15:00
1:35 AM,16.5,14.0,90,30.29,10.0,WSW,9.2,-,N/A,,Clear,250,2013-01-04 07:35:00
1:55 AM,15.8,13.5,90,30.30,10.0,WSW,10.4,-,N/A,,Clear,250,2013-01-04 07:55:00
2:15 AM,16.0,13.5,90,30.29,10.0,WSW,10.4,-,N/A,,Scattered Clouds,250,2013-01-04 08:15:00
2:35 AM,15.6,13.1,90,30.29,10.0,WSW,9.2,-,N/A,,Clear,250,2013-01-04 08:35:00
2:55 AM,14.7,12.6,91,30.29,10.0,SW,9.2,-,N/A,,Clear,230,2013-01-04 08:55:00
3:15 AM,14.4,12.2,91,30.29,10.0,SW,10.4,-,N/A,,Clear,230,2013-01-04 09:15:00
5:55 AM,11.8,9.0,88,30.28,10.0,WSW,11.5,-,N/A,,Clear,250,2013-01-04 11:55:00
6:15 AM,12.2,9.0,87,30.29,10.0,WSW,8.1,-,N/A,,Clear,240,2013-01-04 12:15:00
6:35 AM,12.2,9.1,88,30.29,10.0,WSW,8.1,-,N/A,,Clear,250,2013-01-04 12:35:00
6:55 AM,12.2,10.4,92,30.28,10.0,WSW,10.4,-,N/A,,Clear,250,2013-01-04 12:55:00
7:15 AM,12.6,9.3,87,30.28,10.0,SW,9.2,-,N/A,,Clear,230,2013-01-04 13:15:00
7:35 AM,10.9,8.2,89,30.28,10.0,SW,10.4,-,N/A,,Clear,220,2013-01-04 13:35:00
7:55 AM,11.8,8.6,87,30.28,10.0,SW,10.4,16.1,N/A,,Clear,220,2013-01-04 13:55:00
8:15 AM,13.5,10.0,86,30.28,10.0,SW,12.7,-,N/A,,Clear,230,2013-01-04 14:15:00
8:35 AM,14.7,11.1,86,30.28,10.0,SW,11.5,-,N/A,,Clear,230,2013-01-04 14:35:00
8:55 AM,16.3,12.4,84,30.29,10.0,SW,12.7,17.3,N/A,,Clear,230,2013-01-04 14:55:00
9:15 AM,18.5,14.0,83,30.29,10.0,SW,12.7,20.7,N/A,,Clear,230,2013-01-04 15:15:00
9:35 AM,20.5,15.8,82,30.29,10.0,WSW,13.8,18.4,N/A,,Clear,240,2013-01-04 15:35:00
9:55 AM,21.9,16.7,80,30.29,10.0,WSW,18.4,21.9,N/A,,Clear,240,2013-01-04 15:55:00
10:15 AM,23.4,18.3,81,30.29,10.0,WSW,17.3,23.0,N/A,,Clear,240,2013-01-04 16:15:00
10:35 AM,24.6,19.4,81,30.29,10.0,WSW,17.3,23.0,N/A,,Clear,240,2013-01-04 16:35:00
10:55 AM,-9999,-9999,N/A,-9999,-9999.0,North,-9999.0,-,N/A,,Unknown,0,2013-01-04 16:55:00
11:15 AM,-9999,-9999,N/A,30.27,10.0,WSW,16.1,-,N/A,,Unknown,240,2013-01-04 17:15:00
11:35 AM,-9999,-9999,N/A,30.26,10.0,WSW,18.4,25.3,N/A,,Unknown,240,2013-01-04 17:35:00
11:55 AM,27.9,20.1,73,30.25,10.0,WSW,19.6,24.2,N/A,,Clear,240,2013-01-04 17:55:00
12:15 PM,28.0,21.0,75,30.24,10.0,SW,17.3,23.0,N/A,,Clear,230,2013-01-04 18:15:00
12:35 PM,28.2,21.4,76,30.24,10.0,SW,17.3,25.3,N/A,,Clear,230,2013-01-04 18:35:00
12:55 PM,28.2,21.4,76,30.23,10.0,SW,17.3,27.6,N/A,,Clear,230,2013-01-04 18:55:00
1:15 PM,28.9,21.9,75,30.23,10.0,SW,17.3,25.3,N/A,,Clear,230,2013-01-04 19:15:00
1:35 PM,28.9,22.1,76,30.22,10.0,SW,19.6,26.5,N/A,,Clear,230,2013-01-04 19:35:00
1:55 PM,29.3,22.6,76,30.22,10.0,SW,18.4,24.2,N/A,,Clear,220,2013-01-04 19:55:00
2:15 PM,29.3,22.6,76,30.22,10.0,SW,20.7,25.3,N/A,,Clear,230,2013-01-04 20:15:00
2:35 PM,29.8,22.8,75,30.22,10.0,SW,21.9,25.3,N/A,,Clear,220,2013-01-04 20:35:00
2:55 PM,30.0,23.2,76,30.22,10.0,SW,18.4,23.0,N/A,,Clear,230,2013-01-04 20:55:00
3:15 PM,29.7,23.0,76,30.22,10.0,SW,16.1,-,N/A,,Clear,220,2013-01-04 21:15:00
3:35 PM,29.7,23.0,76,30.23,10.0,SW,15.0,19.6,N/A,,Clear,230,2013-01-04 21:35:00
3:55 PM,29.3,22.8,77,30.23,10.0,SW,17.3,20.7,N/A,,Clear,230,2013-01-04 21:55:00
4:15 PM,29.3,22.6,76,30.23,10.0,SW,16.1,24.2,N/A,,Clear,230,2013-01-04 22:15:00
4:35 PM,28.9,22.1,76,30.23,10.0,SW,18.4,23.0,N/A,,Clear,220,2013-01-04 22:35:00
4:55 PM,28.4,22.1,77,30.23,10.0,SW,15.0,-,N/A,,Clear,220,2013-01-04 22:55:00
5:15 PM,27.3,22.1,81,30.24,10.0,SW,12.7,-,N/A,,Clear,230,2013-01-04 23:15:00
5:35 PM,27.1,22.1,81,30.25,10.0,SW,12.7,-,N/A,,Clear,230,2013-01-04 23:35:00
5:55 PM,26.6,21.9,82,30.26,10.0,SW,11.5,-,N/A,,Clear,230,2013-01-04 23:55:00
6:15 PM,26.1,21.4,82,30.26,10.0,SW,9.2,-,N/A,,Clear,220,2013-01-05 00:15:00
6:35 PM,25.2,21.0,84,30.26,10.0,SW,9.2,-,N/A,,Clear,230,2013-01-05 00:35:00
6:55 PM,23.9,20.3,86,30.26,10.0,SW,10.4,-,N/A,,Clear,220,2013-01-05 00:55:00
7:15 PM,24.3,20.3,85,30.26,10.0,SW,9.2,-,N/A,,Clear,220,2013-01-05 01:15:00
7:35 PM,23.9,20.1,85,30.26,10.0,SW,9.2,-,N/A,,Clear,220,2013-01-05 01:35:00
7:55 PM,23.2,19.4,85,30.27,10.0,SW,5.8,-,N/A,,Clear,220,2013-01-05 01:55:00
8:15 PM,23.0,19.2,85,30.27,10.0,SW,5.8,-,N/A,,Clear,230,2013-01-05 02:15:00
8:35 PM,23.4,19.2,84,30.27,10.0,SW,9.2,-,N/A,,Clear,230,2013-01-05 02:35:00
8:55 PM,23.0,18.9,84,30.27,10.0,SW,8.1,-,N/A,,Clear,220,2013-01-05 02:55:00
9:15 PM,23.7,19.0,82,30.27,10.0,SW,10.4,-,N/A,,Clear,230,2013-01-05 03:15:00
9:35 PM,21.2,17.6,86,30.27,10.0,SW,8.1,-,N/A,,Clear,220,2013-01-05 03:35:00
9:55 PM,22.1,18.3,85,30.27,10.0,SW,11.5,-,N/A,,Clear,220,2013-01-05 03:55:00
10:15 PM,23.4,18.7,82,30.27,10.0,SW,8.1,-,N/A,,Clear,230,2013-01-05 04:15:00
10:35 PM,23.4,18.7,82,30.27,10.0,WSW,9.2,-,N/A,,Clear,240,2013-01-05 04:35:00
10:55 PM,21.2,17.6,86,30.27,10.0,SW,5.8,-,N/A,,Clear,220,2013-01-05 04:55:00
11:15 PM,20.3,16.7,86,30.27,10.0,SSW,4.6,-,N/A,,Clear,200,2013-01-05 05:15:00
11:35 PM,19.0,15.8,87,30.26,10.0,SSW,4.6,-,N/A,,Clear,210,2013-01-05 05:35:00
11:55 PM,18.9,15.8,88,30.25,10.0,SW,5.8,-,N/A,,Clear,220,2013-01-05 05:55:00